TimeMDT,TemperatureF,Dew PointF,Humidity,Sea Level PressureIn,VisibilityMPH,Wind Direction,Wind SpeedMPH,Gust SpeedMPH,PrecipitationIn,Events,Conditions,WindDirDegrees,DateUTC
12:15 AM,60.8,33.8,36,30.19,10.0,West,5.8,-,N/A,,Mostly Cloudy,280,2013-05-12 06:15:00
12:55 AM,57.2,33.8,41,30.20,10.0,SE,4.6,-,N/A,,Overcast,140,2013-05-12 06:55:00
1:35 AM,59.0,33.8,39,30.20,10.0,South,3.5,-,N/A,,Overcast,180,2013-05-12 07:35:00
1:55 AM,59.0,35.6,42,30.19,10.0,WSW,3.5,-,N/A,,Mostly Cloudy,240,2013-05-12 07:55:00
2:35 AM,57.2,33.8,41,30.19,10.0,Calm,Calm,-,N/A,,Scattered Clouds,0,2013-05-12 08:35:00
2:55 AM,55.4,32.0,41,30.19,10.0,SSE,4.6,-,N/A,,Partly Cloudy,160,2013-05-12 08:55:00
3:35 AM,53.6,33.8,47,30.18,10.0,SSW,6.9,-,N/A,,Mostly Cloudy,210,2013-05-12 09:35:00
3:55 AM,57.2,33.8,41,30.18,10.0,SW,9.2,-,N/A,,Mostly Cloudy,230,2013-05-12 09:55:00
4:15 AM,59.0,33.8,39,30.17,10.0,WSW,5.8,-,N/A,,Mostly Cloudy,250,2013-05-12 10:15:00
5:55 AM,55.4,33.8,44,30.17,10.0,SSW,4.6,-,N/A,,Clear,200,2013-05-12 11:55:00
6:55 AM,60.8,33.8,36,30.18,10.0,West,5.8,-,N/A,,Clear,260,2013-05-12 12:55:00
7:15 AM,62.6,33.8,34,30.18,10.0,West,6.9,-,N/A,,Clear,260,2013-05-12 13:15:00
7:35 AM,64.4,35.6,34,30.18,10.0,West,6.9,-,N/A,,Clear,260,2013-05-12 13:35:00
8:15 AM,64.4,35.6,34,30.18,10.0,West,6.9,-,N/A,,Clear,260,2013-05-12 14:15:00
8:35 AM,66.2,37.4,35,30.17,10.0,West,6.9,-,N/A,,Clear,260,2013-05-12 14:35:00
8:55 AM,69.8,35.6,28,30.17,10.0,West,5.8,-,N/A,,Clear,260,2013-05-12 14:55:00
9:35 AM,71.6,35.6,27,30.16,10.0,West,5.8,-,N/A,,Clear,260,2013-05-12 15:35:00
9:55 AM,73.4,35.6,25,30.16,10.0,West,8.1,-,N/A,,Clear,280,2013-05-12 15:55:00
10:55 AM,75.2,37.4,25,30.15,10.0,West,6.9,-,N/A,,Clear,270,2013-05-12 16:55:00
11:15 AM,75.2,35.6,24,30.14,10.0,NNW,9.2,-,N/A,,Clear,330,2013-05-12 17:15:00
11:35 AM,75.2,35.6,24,30.13,10.0,SSW,6.9,-,N/A,,Clear,200,2013-05-12 17:35:00
11:55 AM,77.0,35.6,22,30.12,10.0,SW,13.8,18.4,N/A,,Clear,220,2013-05-12 17:55:00
12:15 PM,77.0,33.8,21,30.12,10.0,WSW,10.4,-,N/A,,Partly Cloudy,240,2013-05-12 18:15:00
12:35 PM,78.8,39.2,24,30.12,10.0,WNW,9.2,18.4,N/A,,Mostly Cloudy,300,2013-05-12 18:35:00
12:55 PM,78.8,35.6,21,30.11,10.0,NW,12.7,17.3,N/A,,Mostly Cloudy,310,2013-05-12 18:55:00
1:15 PM,78.8,37.4,23,30.11,10.0,NW,11.5,18.4,N/A,,Partly Cloudy,310,2013-05-12 19:15:00
1:35 PM,78.8,37.4,23,30.11,10.0,NW,13.8,23.0,N/A,,Clear,310,2013-05-12 19:35:00
1:55 PM,78.8,35.6,21,30.11,10.0,WNW,8.1,26.5,N/A,,Partly Cloudy,290,2013-05-12 19:55:00
2:15 PM,80.6,37.4,21,30.10,10.0,WNW,8.1,-,N/A,,Scattered Clouds,300,2013-05-12 20:15:00
2:55 PM,78.8,37.4,23,30.10,10.0,West,9.2,21.9,N/A,,Mostly Cloudy,270,2013-05-12 20:55:00
3:15 PM,78.8,37.4,23,30.10,10.0,WNW,12.7,-,N/A,,Overcast,290,2013-05-12 21:15:00
3:35 PM,80.6,37.4,21,30.09,10.0,West,11.5,19.6,N/A,,Overcast,280,2013-05-12 21:35:00
3:55 PM,78.8,35.6,21,30.09,10.0,West,9.2,19.6,N/A,,Scattered Clouds,270,2013-05-12 21:55:00
4:35 PM,80.6,35.6,20,30.08,10.0,WSW,9.2,17.3,N/A,,Mostly Cloudy,250,2013-05-12 22:35:00
4:55 PM,80.6,37.4,21,30.08,10.0,NW,15.0,19.6,N/A,,Overcast,320,2013-05-12 22:55:00
5:15 PM,78.8,35.6,21,30.07,10.0,WSW,13.8,-,N/A,,Overcast,250,2013-05-12 23:15:00
6:35 PM,78.8,35.6,21,30.06,10.0,WSW,6.9,-,N/A,,Partly Cloudy,250,2013-05-13 00:35:00
6:55 PM,77.0,35.6,22,30.06,10.0,WSW,9.2,-,N/A,,Clear,250,2013-05-13 00:55:00
7:15 PM,75.2,35.6,24,30.05,10.0,SW,9.2,-,N/A,,Clear,230,2013-05-13 01:15:00
7:35 PM,75.2,35.6,24,30.05,10.0,WSW,6.9,-,N/A,,Clear,250,2013-05-13 01:35:00
7:55 PM,75.2,35.6,24,30.05,10.0,WSW,9.2,-,N/A,,Clear,250,2013-05-13 01:55:00
8:15 PM,75.2,35.6,24,30.06,10.0,WSW,5.8,-,N/A,,Clear,250,2013-05-13 02:15:00
8:35 PM,75.2,35.6,24,30.06,10.0,WSW,5.8,-,N/A,,Clear,250,2013-05-13 02:35:00
8:55 PM,73.4,35.6,25,30.06,10.0,WSW,6.9,-,N/A,,Clear,240,2013-05-13 02:55:00
9:15 PM,73.4,35.6,25,30.06,10.0,WSW,6.9,-,N/A,,Clear,240,2013-05-13 03:15:00
9:35 PM,71.6,35.6,27,30.06,10.0,SW,9.2,-,N/A,,Clear,220,2013-05-13 03:35:00
9:55 PM,69.8,35.6,28,30.07,10.0,SSW,11.5,-,N/A,,Clear,200,2013-05-13 03:55:00
10:15 PM,68.0,35.6,30,30.07,10.0,SW,9.2,-,N/A,,Clear,220,2013-05-13 04:15:00
10:35 PM,69.8,35.6,28,30.07,10.0,SW,10.4,-,N/A,,Clear,230,2013-05-13 04:35:00
11:35 PM,68.0,37.4,33,30.07,10.0,WSW,12.7,17.3,N/A,,Clear,250,2013-05-13 05:35:00
11:55 PM,71.6,35.6,27,30.06,10.0,WSW,8.1,17.3,N/A,,Clear,240,2013-05-13 05:55:00